Retour au catalogue

THOR ABLESTAR DEB

ActifLEO
NORAD 4005·DEBRIS·🇺🇸 United States

Lancé Jun 29, 1961 depuis Cape Canaveral Space Force Station

Loading…

Prochains Passages (prochaines 24 heures)

TLE

FraisSource: Space-Track

Époque: Sep 14, 2026, 04:57 UTC

1 04005U 61015JK  26257.20628757  .00000208  00000-0  26949-3 0  9994
2 04005  66.7492 169.7618 0096908 229.5701 283.1529 13.78495562900066

Suivez THOR ABLESTAR DEB en temps réel avec AllMySat

Download on the App Store